Regional Weather Roundup
Issued by NWS Sioux Falls, SD

Home | Current Version | Previous Version | Graphics & Text | Print | Product List | Glossary Off
Versions: 1 2 3 4 5 6 7 8 9 10 11 12 13 14 15 16 17 18 19 20 21 22 23 24 25 26 27 28 29 30 31 32 33 34 35 36 37 38 39 40 41 42 43 44 45 46 47 48 49 50

000
ASUS43 KFSD 160602
RWRFSD

WEATHER ROUNDUP FOR SE SOUTH DAKOTA/SW MINNESOTA/NW IOWA
NATIONAL WEATHER SERVICE SIOUX FALLS SD
100 AM CDT WED AUG 16 2017

NOTE: "FAIR" INDICATES FEW OR NO CLOUDS BELOW 12,000 FEET WITH NO
SIGNIFICANT WEATHER AND OR OBSTRUCTIONS TO VISIBILITY.


SDZ038>040-050-052>070-160700-
SOUTHEAST SOUTH DAKOTA

CITY           SKY/WX    TMP DP  RH WIND       PRES   REMARKS
BROOKINGS      CLOUDY    65  63  93 SE9       29.87R
CHAMBERLAIN    CLOUDY    67  67 100 SE5       29.85S
6HR MIN TEMP:  67; 6HR MAX TEMP:  73;

HURON          CLOUDY    66  65  96 SE8       29.82F
6HR MIN TEMP:  66; 6HR MAX TEMP:  71;

MADISON        FOG       64  64 100 SE9       29.86S VSB 1
MITCHELL       CLOUDY    67  65  93 SE7       29.84S
6HR MIN TEMP:  67; 6HR MAX TEMP:  69;

SIOUX FALLS    CLOUDY    67  66  97 SE6       29.85S
6HR MIN TEMP:  66; 6HR MAX TEMP:  68; 6HR PCP: TRACE;

WINNER         LGT RAIN  67  63  87 W14       29.85S
YANKTON        CLOUDY    66  64  93 SE6       29.84R
$$

MNZ071-072-080-081-089-090-097-098-160700-
SOUTHWEST MINNESOTA

CITY           SKY/WX    TMP DP  RH WIND       PRES   REMARKS
FAIRMONT       LGT RAIN  65  64  97 E7        29.91S
JACKSON        CLOUDY    64  64 100 SE8G18    29.90S FOG
MARSHALL       CLOUDY    65  63  93 SE10      29.88F
6HR MIN TEMP:  64; 6HR MAX TEMP:  67;

MONTEVIDEO     CLOUDY    63  63 100 SE8       29.88F
PIPESTONE      CLOUDY    66  63  88 SE7       29.87S
REDWOOD FALLS  CLOUDY    66  61  84 SE10      29.90S
TRACY          CLOUDY    65  65  97 SE5       29.89S
WINDOM         CLOUDY    66  63  88 SE9       29.90S
WORTHINGTON    CLOUDY    65  64  97 E5        29.90R FOG
$$

IAZ001>003-012>014-020>022-031-032-NEZ013-014-SDZ071-160700-
NORTHWEST IOWA

CITY           SKY/WX    TMP DP  RH WIND       PRES   REMARKS
CHEROKEE       CLOUDY    66  66 100 E5        29.86F
DENISON        CLOUDY    66  64  94 SE6       29.88S
ESTHERVILLE    CLOUDY    65  65 100 SE13      29.89S FOG
LE MARS        CLOUDY    66  66 100 NE5       29.84S
ORANGE CITY    CLOUDY    66  66 100 E6        29.86S FOG
SHELDON        CLOUDY    64  64 100 SE8       29.86R FOG
SIOUX CITY     CLOUDY    67  67 100 SE5       29.82S
6HR MIN TEMP:  66; 6HR MAX TEMP:  67; 6HR PCP:  0.04;

SPENCER        CLOUDY    68  66  93 SE14      29.89R
6HR MIN TEMP:  66; 6HR MAX TEMP:  68; 6HR PCP:  0.06;

STORM LAKE     CLOUDY    66  66 100 SE8       29.88S FOG
$$

ABBREVIATIONS USED IN REMARKS
   TC - TEMPERATURE IN CELSIUS
  WCI - WIND CHILL INDEX
   HX - HEAT INDEX
  VSB - VISIBILITY





USA.gov is the U.S. government's official web portal to all federal, state and local government web resources and services.